Location: Devore Heights
(34.2372°N, 117.4156°W)
Time: 19:02:36
(UTC+00:00)

S-56A Canister/Altair - Pass Details

Date: 22 September 2024
Orbit: 636 x 2487 km, 38.9° (Epoch: 14 October)

Event Time Altitude Azimuth Distance (km) Brightness Sun altitude
Rises 21:18:48 0° 195° (SSW) 3,188 11.3 48.8°
Reaches altitude 10° 21:23:00 10° 162° (SSE) 2,078 10.2 48.3°
Maximum altitude 21:24:33 12° 142° (SE) 1,935 9.9 48.1°
Drops below altitude 10° 21:26:05 10° 122° (ESE) 2,015 9.7 47.9°
Sets 21:29:56 0° 88° (E) 2,948 10.3 47.3°
